Hastings, NE

5:59 AM CDT on September 26, 2016 (GMT -0500)
Hastings Municipal

Weather History for KHSI - March, 2014

Change the Weather History Date:

Sunday, March 9, 2014

  Actual Average Record
Temperature  
Mean Temperature 54 °F 37 °F  
Max Temperature 76 °F 48 °F 78 °F (1936)
Min Temperature 32 °F 27 °F -2 °F (1996)
Degree Days  
Heating Degree Days 11 28  
Month to date heating degree days 350 264  
Since 1 July heating degree days 5230 4894  
Cooling Degree Days 0 0  
Month to date cooling degree days 0 0  
Year to date cooling degree days 0 0  
Growing Degree Days 4 (Base 50)    
Moisture  
Dew Point 23 °F    
Average Humidity 42    
Maximum Humidity 75    
Minimum Humidity 9    
Precipitation  
Precipitation 0.00 in 0.05 in 1.17 in (2013)
Month to date precipitation T 0.34  
Year to date precipitation 0.71 1.24  
Snow  
Snow 0.00 in 0.20 in 11.00 in (1975)
Month to date snowfall T 1.7  
Since 1 July snowfall 18.3 24.1  
Snow Depth 0.00 in    
Sea Level Pressure  
Sea Level Pressure 30.00 in    
Wind  
Wind Speed 10 mph (SW)    
Max Wind Speed 25 mph    
Max Gust Speed 34 mph    
Visibility 10 miles    
Events      
T = Trace of Precipitation, MM = Missing Value Source: NWS Daily Summary

Daily Weather History Graph

Daily Weather History Graph

Search for Another Location

Airport or City:

Trip Planner

Search our weather history database for the weather conditions in past years. The results will help you decide how hot, cold, wet, or windy it might be!

Date:

Astronomy

Mar. 09, 2014 Rise Set
Actual Time 7:54 AM CDT 7:34 PM CDT
Civil Twilight 7:27 AM CDT 8:01 PM CDT
Nautical Twilight 6:56 AM CDT 8:32 PM CDT
Astronomical Twilight 6:24 AM CDT 9:04 PM CDT
Moon 1:26 PM CDT (3/9) 3:22 AM CDT (3/9)
Length of Visible Light 12h 33m
Length of Day
11h 39m
First Quarter, 61% of the Moon is Illuminated
Mar 9
First Quarter
Mar 16
Full
Mar 23
Last Quarter
Mar 30
New
Apr 7
First Quarter

Hourly Weather History & Observations

Time (CDT) Temp. Windchill Dew Point Humidity Pressure Visibility Wind Dir Wind Speed Gust Speed Precip Events Conditions
12:53 AM 33.1 °F 25.5 °F 19.9 °F 59% 30.26 in 10.0 mi SSW 9.2 mph - N/A   Clear
1:53 AM 33.1 °F 26.1 °F 21.0 °F 61% 30.25 in 10.0 mi SSW 8.1 mph - N/A   Clear
3:53 AM 33.1 °F 25.5 °F 21.9 °F 64% 30.19 in 10.0 mi SSW 9.2 mph - N/A   Clear
4:53 AM 32.0 °F 23.0 °F 23.0 °F 69% 30.15 in 10.0 mi SSW 11.5 mph - N/A   Clear
5:53 AM 32.0 °F 24.2 °F 25.0 °F 75% 30.16 in 10.0 mi SW 9.2 mph - N/A   Clear
6:53 AM 33.1 °F 26.9 °F 26.1 °F 75% 30.14 in 10.0 mi SW 6.9 mph - N/A   Clear
7:53 AM 33.1 °F 26.9 °F 27.0 °F 78% 30.14 in 10.0 mi SW 6.9 mph - N/A   Clear
8:53 AM 37.0 °F 29.8 °F 28.0 °F 70% 30.13 in 10.0 mi SW 10.4 mph 17.3 mph N/A   Clear
9:53 AM 46.0 °F 41.4 °F 30.0 °F 54% 30.10 in 10.0 mi SW 9.2 mph - N/A   Clear
10:53 AM 52.0 °F - 28.0 °F 40% 30.08 in 10.0 mi SW 12.7 mph - N/A   Clear
11:53 AM 57.9 °F - 28.0 °F 32% 30.04 in 10.0 mi SW 15.0 mph 25.3 mph N/A   Clear
12:53 PM 64.9 °F - 25.0 °F 22% 30.00 in 10.0 mi SW 16.1 mph 32.2 mph N/A   Clear
1:53 PM 69.1 °F - 21.9 °F 17% 29.96 in 10.0 mi WSW 18.4 mph 34.5 mph N/A   Clear
2:53 PM 72.0 °F - 19.9 °F 14% 29.91 in 10.0 mi SW 13.8 mph 29.9 mph N/A   Clear
3:53 PM 73.9 °F - 15.1 °F 11% 29.87 in 10.0 mi WSW 18.4 mph 32.2 mph N/A   Clear
4:53 PM 75.9 °F - 12.0 °F 9% 29.86 in 10.0 mi WSW 24.2 mph 32.2 mph N/A   Clear
5:53 PM 75.0 °F - 19.0 °F 12% 29.86 in 10.0 mi SW 10.4 mph 19.6 mph N/A   Clear
6:53 PM 70.0 °F - 19.9 °F 15% 29.85 in 10.0 mi SW 4.6 mph - N/A   Clear
7:53 PM 64.0 °F - 21.9 °F 20% 29.86 in 10.0 mi South 8.1 mph - N/A   Clear
8:53 PM 57.9 °F - 24.1 °F 27% 29.86 in 10.0 mi SSW 4.6 mph - N/A   Clear
9:53 PM 55.0 °F - 24.1 °F 30% 29.85 in 10.0 mi North - - N/A   Clear
10:53 PM 48.9 °F - 25.0 °F 39% 29.86 in 10.0 mi SSW 4.6 mph - N/A   Clear
11:53 PM 50.0 °F - 26.1 °F 39% 29.83 in 10.0 mi SW 4.6 mph - N/A   Clear
12:53 AM 46.9 °F - 25.0 °F 42% 29.82 in 10.0 mi WSW 3.5 mph - N/A   Clear